{"data":{"norad_id":53598,"epoch":"2026-09-20T22:00:03.000096Z","epoch_age_seconds":42234,"freshness":"FRESH","line1":"1 53598U 22104L   26263.91670139  .00113982  00000+0  41571-2 0  9997","line2":"2 53598  53.1592  84.0024 0000949 139.6958 135.4733 15.27281649  5701","mean_motion":15.27281649,"eccentricity":9.49e-5,"inclination_deg":53.1592,"raan_deg":84.0024,"arg_perigee_deg":139.6958,"mean_anomaly_deg":135.4733,"bstar":0.0041571,"rev_number":570,"period_min":94.28516350883,"perigee_km":483.29140033809,"apogee_km":484.59382304839,"semimajor_km":6862.0796116932,"source":"CELESTRAK","updated_at":"2026-09-21T09:00:32.936114Z"}}